Malaga, Spain

5:12 AM CEST on June 28, 2017 (GMT +0200)
Malaga

Weather History for LEMG - October, 2011

Change the Weather History Date:

Tuesday, October 18, 2011

  Actual Average Record
Temperature  
Mean Temperature 71 °F -  
Max Temperature 76 °F 67 °F 84 °F (1998)
Min Temperature 64 °F 53 °F 50 °F (2000)
Cooling Degree Days 6    
Growing Degree Days 21 (Base 50)    
Moisture  
Dew Point 56 °F    
Average Humidity 61    
Maximum Humidity 73    
Minimum Humidity 37    
Precipitation  
Precipitation 0.00 in 0.12 in - ()
Sea Level Pressure  
Sea Level Pressure 30.13 in    
Wind  
Wind Speed 5 mph ()    
Max Wind Speed 10 mph    
Max Gust Speed -    
Visibility 6.6 miles    
Events      
Averages and records for this station are not official NWS values.
T = Trace of Precipitation, MM = Missing Value Source: Averaged Metar Reports

Daily Weather History Graph

Daily Weather History Graph

Search for Another Location

Airport or City:

Trip Planner

Search our weather history database for the weather conditions in past years. The results will help you decide how hot, cold, wet, or windy it might be!

Date:

Astronomy

Oct. 18, 2011 Rise Set
Actual Time 8:27 AM CEST 7:38 PM CEST
Civil Twilight 8:01 AM CEST 8:04 PM CEST
Nautical Twilight 7:31 AM CEST 8:34 PM CEST
Astronomical Twilight 7:01 AM CEST 9:04 PM CEST
Moon No Moon Rise 2:02 PM CEST (10/18)
Length of Visible Light 12h 02m
Length of Day
11h 10m
Waning Gibbous, 67% of the Moon is Illuminated
Oct 18
Waning Gibbous
Oct 20
Last Quarter
Oct 26
New
Nov 2
First Quarter
Nov 10
Full

Hourly Weather History & Observations

Time (CEST) Temp. Dew Point Humidity Pressure Visibility Wind Dir Wind Speed Gust Speed Precip Events Conditions
12:00 AM 69.8 °F 59.0 °F 68% 30.15 in 6.2 mi ESE 4.6 mph - N/A   Mostly Cloudy
12:30 AM 69.8 °F 59.0 °F 68% 30.15 in 6.2 mi ESE 6.9 mph - N/A   Mostly Cloudy
1:00 AM 69.8 °F 59.0 °F 68% 30.15 in 6.2 mi SE 5.8 mph - N/A   Scattered Clouds
1:30 AM 69.8 °F 59.0 °F 68% 30.15 in 6.2 mi ESE 5.8 mph - N/A   Scattered Clouds
2:00 AM 70 °F 59 °F 60% 30.16 in 16 mi ESE 4.6 mph - -   Partly Cloudy
2:00 AM 69.8 °F 59.0 °F 68% 30.15 in 6.2 mi ESE 4.6 mph - N/A   Scattered Clouds
2:30 AM 69.8 °F 57.2 °F 64% 30.15 in 6.2 mi ESE 5.8 mph - N/A   Scattered Clouds
3:00 AM 69.8 °F 57.2 °F 64% 30.12 in 6.2 mi ESE 5.8 mph - N/A   Scattered Clouds
3:30 AM 69.8 °F 57.2 °F 64% 30.12 in 6.2 mi ESE 6.9 mph - N/A   Scattered Clouds
4:00 AM 69.8 °F 57.2 °F 64% 30.12 in 6.2 mi SE 6.9 mph - N/A   Scattered Clouds
4:30 AM 69.8 °F 57.2 °F 64% 30.12 in 6.2 mi SE 6.9 mph - N/A   Scattered Clouds
5:00 AM 69.8 °F 57.2 °F 64% 30.12 in 6.2 mi ESE 6.9 mph - N/A   Scattered Clouds
5:30 AM 69.8 °F 59.0 °F 68% 30.12 in 6.2 mi SE 5.8 mph - N/A   Scattered Clouds
6:00 AM 69.8 °F 57.2 °F 64% 30.12 in 6.2 mi ESE 5.8 mph - N/A   Scattered Clouds
6:30 AM 69.8 °F 55.4 °F 60% 30.12 in 6.2 mi ESE 6.9 mph - N/A   Scattered Clouds
7:00 AM 68.0 °F 57.2 °F 68% 30.12 in 6.2 mi SE 3.5 mph - N/A   Scattered Clouds
7:30 AM 68.0 °F 57.2 °F 68% 30.12 in 6.2 mi SE 2.3 mph - N/A   Scattered Clouds
8:00 AM 68 °F 59 °F 64% 30.14 in 16 mi SE 2.3 mph - -   Partly Cloudy
8:00 AM 68.0 °F 57.2 °F 68% 30.12 in 6.2 mi SE 2.3 mph - N/A   Scattered Clouds
8:30 AM 66.2 °F 57.2 °F 73% 30.12 in 6.2 mi Calm Calm - N/A   Scattered Clouds
9:00 AM 66.2 °F 57.2 °F 73% 30.12 in 6.2 mi Calm Calm - N/A   Scattered Clouds
9:30 AM 66.2 °F 57.2 °F 73% 30.12 in 6.2 mi WNW 1.2 mph - N/A   Scattered Clouds
10:00 AM 68.0 °F 57.2 °F 68% 30.15 in 6.2 mi NW 1.2 mph - N/A   Scattered Clouds
10:30 AM 68.0 °F 57.2 °F 68% 30.15 in 6.2 mi Variable 2.3 mph - N/A   Mostly Cloudy
11:00 AM 69.8 °F 57.2 °F 64% 30.15 in 6.2 mi Variable 1.2 mph - N/A   Mostly Cloudy
11:30 AM 71.6 °F 55.4 °F 57% 30.15 in 6.2 mi ESE 6.9 mph - N/A   Scattered Clouds
12:00 PM 73.4 °F 53.6 °F 50% 30.15 in 6.2 mi SE 8.1 mph - N/A   Scattered Clouds
12:30 PM 73.4 °F 53.6 °F 50% 30.15 in 6.2 mi ESE 9.2 mph - N/A   Scattered Clouds
1:00 PM 73.4 °F 53.6 °F 50% 30.15 in 6.2 mi ESE 8.1 mph - N/A   Partly Cloudy
1:30 PM 73.4 °F 53.6 °F 50% 30.15 in 6.2 mi SE 9.2 mph - N/A   Partly Cloudy
2:00 PM 75 °F 54 °F 37% 30.15 in 25 mi SE 10.4 mph - -   Scattered Clouds
2:00 PM 73.4 °F 51.8 °F 47% 30.12 in 6.2 mi SE 10.4 mph - N/A   Partly Cloudy
2:30 PM 73.4 °F 53.6 °F 50% 30.12 in 6.2 mi SE 9.2 mph - N/A   Partly Cloudy
3:00 PM 73.4 °F 53.6 °F 50% 30.12 in 6.2 mi SE 8.1 mph - N/A   Partly Cloudy
3:30 PM 73.4 °F 53.6 °F 50% 30.09 in 6.2 mi SE 8.1 mph - N/A   Partly Cloudy
4:00 PM 73.4 °F 55.4 °F 53% 30.09 in 6.2 mi SE 8.1 mph - N/A   Partly Cloudy
4:30 PM 71.6 °F 53.6 °F 53% 30.09 in 6.2 mi SE 8.1 mph - N/A   Partly Cloudy
5:00 PM 73.4 °F 53.6 °F 50% 30.09 in 6.2 mi SE 8.1 mph - N/A   Partly Cloudy
5:30 PM 71.6 °F 55.4 °F 57% 30.09 in 6.2 mi SE 6.9 mph - N/A   Partly Cloudy
6:00 PM 71.6 °F 53.6 °F 53% 30.09 in 6.2 mi SE 8.1 mph - N/A   Partly Cloudy
6:30 PM 71.6 °F 55.4 °F 57% 30.09 in 6.2 mi SE 6.9 mph - N/A   Partly Cloudy
7:00 PM 69.8 °F 55.4 °F 60% 30.09 in 6.2 mi SE 5.8 mph - N/A   Partly Cloudy
7:30 PM 69.8 °F 55.4 °F 60% 30.09 in 6.2 mi ESE 6.9 mph - N/A   Partly Cloudy
8:00 PM 71 °F 56 °F 49% 30.12 in 25 mi SE 4.6 mph - -  
8:00 PM 69.8 °F 55.4 °F 60% 30.12 in - SE 4.6 mph - N/A   Clear
8:30 PM 69.8 °F 57.2 °F 64% 30.12 in - Variable 2.3 mph - N/A   Clear
9:00 PM 68.0 °F 57.2 °F 68% 30.12 in - SE 2.3 mph - N/A   Clear
9:30 PM 68.0 °F 57.2 °F 68% 30.12 in - Variable 1.2 mph - N/A   Clear
10:00 PM 66.2 °F 57.2 °F 73% 30.12 in - Variable 1.2 mph - N/A   Clear
10:30 PM 66.2 °F 55.4 °F 68% 30.15 in - Variable 1.2 mph - N/A   Clear
11:00 PM 66.2 °F 57.2 °F 73% 30.15 in 6.2 mi Variable 1.2 mph - N/A   Partly Cloudy
11:30 PM 64.4 °F 55.4 °F 73% 30.15 in 6.2 mi West 2.3 mph - N/A   Partly Cloudy